Year,Month,Day,Hour,Minute,Value (Times are PST for temperature in C)
2016,04,18,00,00,13.80
2016,04,18,00,01,13.80
2016,04,18,00,02,13.80
2016,04,18,00,03,13.80
2016,04,18,00,04,13.70
2016,04,18,00,05,13.70
2016,04,18,00,06,13.70
2016,04,18,00,07,13.70
2016,04,18,00,08,13.70
2016,04,18,00,09,13.70
2016,04,18,00,10,13.70
2016,04,18,00,11,13.70
2016,04,18,00,12,13.60
2016,04,18,00,13,13.60
2016,04,18,00,14,13.60
2016,04,18,00,15,13.60
2016,04,18,00,16,13.60
2016,04,18,00,17,13.60
2016,04,18,00,18,13.60
2016,04,18,00,19,13.50
2016,04,18,00,20,13.50
2016,04,18,00,21,13.50
2016,04,18,00,22,13.50
2016,04,18,00,23,13.60
2016,04,18,00,24,13.60
2016,04,18,00,25,13.70
2016,04,18,00,26,13.70
2016,04,18,00,27,13.70
2016,04,18,00,28,13.70
2016,04,18,00,29,13.80
2016,04,18,00,30,13.90
2016,04,18,00,31,13.90
2016,04,18,00,32,14.00
2016,04,18,00,33,14.00
2016,04,18,00,34,14.00
2016,04,18,00,35,14.00
2016,04,18,00,36,14.00
2016,04,18,00,37,14.10
2016,04,18,00,38,14.10
2016,04,18,00,39,14.10
2016,04,18,00,40,14.20
2016,04,18,00,41,14.30
2016,04,18,00,42,14.40
2016,04,18,00,43,14.50
2016,04,18,00,44,14.60
2016,04,18,00,45,14.70
2016,04,18,00,46,14.70
2016,04,18,00,47,14.80
2016,04,18,00,48,14.80
2016,04,18,00,49,14.80
2016,04,18,00,50,14.90
2016,04,18,00,51,14.90
2016,04,18,00,52,15.00
2016,04,18,00,53,15.00
2016,04,18,00,54,15.00
2016,04,18,00,55,15.10
2016,04,18,00,56,15.10
2016,04,18,00,57,15.10
2016,04,18,00,58,15.20
2016,04,18,00,59,15.20
2016,04,18,01,00,15.20
2016,04,18,01,01,15.20
2016,04,18,01,02,15.20
2016,04,18,01,03,15.20
2016,04,18,01,04,15.30
2016,04,18,01,05,15.30
2016,04,18,01,06,15.30
2016,04,18,01,07,15.30
2016,04,18,01,08,15.30
2016,04,18,01,09,15.30
2016,04,18,01,10,15.30
2016,04,18,01,11,15.30
2016,04,18,01,12,15.30
2016,04,18,01,13,15.20
2016,04,18,01,14,15.20
2016,04,18,01,15,15.20
2016,04,18,01,16,15.20
2016,04,18,01,17,15.20
2016,04,18,01,18,15.20
2016,04,18,01,19,15.20
2016,04,18,01,20,15.20
2016,04,18,01,21,15.20
2016,04,18,01,22,15.10
2016,04,18,01,23,15.10
2016,04,18,01,24,15.10
2016,04,18,01,25,15.10
2016,04,18,01,26,15.10
2016,04,18,01,27,15.10
2016,04,18,01,28,15.00
2016,04,18,01,29,15.00
2016,04,18,01,30,15.00
2016,04,18,01,31,14.90
2016,04,18,01,32,14.90
2016,04,18,01,33,14.90
2016,04,18,01,34,14.90
2016,04,18,01,35,14.80
2016,04,18,01,36,14.80
2016,04,18,01,37,14.80
2016,04,18,01,38,14.80
2016,04,18,01,39,14.80
2016,04,18,01,40,14.80
2016,04,18,01,41,14.80
2016,04,18,01,42,14.80
2016,04,18,01,43,14.80
2016,04,18,01,44,14.70
2016,04,18,01,45,14.70
2016,04,18,01,46,14.70
2016,04,18,01,47,14.70
2016,04,18,01,48,14.70
2016,04,18,01,49,14.60
2016,04,18,01,50,14.60
2016,04,18,01,51,14.60
2016,04,18,01,52,14.60
2016,04,18,01,53,14.60
2016,04,18,01,54,14.60
2016,04,18,01,55,14.60
2016,04,18,01,56,14.50
2016,04,18,01,57,14.50
2016,04,18,01,58,14.50
2016,04,18,01,59,14.40
2016,04,18,02,00,14.40
2016,04,18,02,01,14.40
2016,04,18,02,02,14.40
2016,04,18,02,03,14.30
2016,04,18,02,04,14.30
2016,04,18,02,05,14.30
2016,04,18,02,06,14.30
2016,04,18,02,07,14.20
2016,04,18,02,08,14.20
2016,04,18,02,09,14.20
2016,04,18,02,10,14.20
2016,04,18,02,11,14.20
2016,04,18,02,12,14.20
2016,04,18,02,13,14.20
2016,04,18,02,14,14.10
2016,04,18,02,15,14.10
2016,04,18,02,16,14.10
2016,04,18,02,17,14.10
2016,04,18,02,18,14.00
2016,04,18,02,19,14.00
2016,04,18,02,20,14.00
2016,04,18,02,21,13.90
2016,04,18,02,22,13.90
2016,04,18,02,23,13.90
2016,04,18,02,24,13.90
2016,04,18,02,25,13.90
2016,04,18,02,26,13.90
2016,04,18,02,27,14.00
2016,04,18,02,28,14.00
2016,04,18,02,29,14.00
2016,04,18,02,30,14.10
2016,04,18,02,31,14.10
2016,04,18,02,32,14.20
2016,04,18,02,33,14.20
2016,04,18,02,34,14.20
2016,04,18,02,35,14.20
2016,04,18,02,36,14.20
2016,04,18,02,37,14.20
2016,04,18,02,38,14.20
2016,04,18,02,39,14.20
2016,04,18,02,40,14.20
2016,04,18,02,41,14.30
2016,04,18,02,42,14.30
2016,04,18,02,43,14.40
2016,04,18,02,44,14.40
2016,04,18,02,45,14.50
2016,04,18,02,46,14.50
2016,04,18,02,47,14.50
2016,04,18,02,48,14.40
2016,04,18,02,49,14.40
2016,04,18,02,50,14.40
2016,04,18,02,51,14.50
2016,04,18,02,52,14.50
2016,04,18,02,53,14.60
2016,04,18,02,54,14.60
2016,04,18,02,55,14.60
2016,04,18,02,56,14.70
2016,04,18,02,57,14.70
2016,04,18,02,58,14.70
2016,04,18,02,59,14.70
2016,04,18,03,00,14.70
2016,04,18,03,01,14.70
2016,04,18,03,02,14.70
2016,04,18,03,03,14.70
2016,04,18,03,04,14.70
2016,04,18,03,05,14.60
2016,04,18,03,06,14.60
2016,04,18,03,07,14.60
2016,04,18,03,08,14.60
2016,04,18,03,09,14.60
2016,04,18,03,10,14.60
2016,04,18,03,11,14.60
2016,04,18,03,12,14.60
2016,04,18,03,13,14.60
2016,04,18,03,14,14.60
2016,04,18,03,15,14.60
2016,04,18,03,16,14.60
2016,04,18,03,17,14.60
2016,04,18,03,18,14.60
2016,04,18,03,19,14.70
2016,04,18,03,20,14.70
2016,04,18,03,21,14.70
2016,04,18,03,22,14.80
2016,04,18,03,23,14.80
2016,04,18,03,24,14.80
2016,04,18,03,25,14.80
2016,04,18,03,26,14.80
2016,04,18,03,27,14.80
2016,04,18,03,28,14.80
2016,04,18,03,29,14.80
2016,04,18,03,30,14.80
2016,04,18,03,31,14.80
2016,04,18,03,32,14.80
2016,04,18,03,33,14.80
2016,04,18,03,34,14.80
2016,04,18,03,35,14.80
2016,04,18,03,36,14.90
2016,04,18,03,37,14.90
2016,04,18,03,38,14.90
2016,04,18,03,39,14.90
2016,04,18,03,40,14.90
2016,04,18,03,41,14.90
2016,04,18,03,42,14.90
2016,04,18,03,43,14.90
2016,04,18,03,44,14.90
2016,04,18,03,45,14.90
2016,04,18,03,46,14.90
2016,04,18,03,47,14.90
2016,04,18,03,48,14.80
2016,04,18,03,49,14.80
2016,04,18,03,50,14.80
2016,04,18,03,51,14.80
2016,04,18,03,52,14.80
2016,04,18,03,53,14.80
2016,04,18,03,54,14.80
2016,04,18,03,55,14.80
2016,04,18,03,56,14.80
2016,04,18,03,57,14.80
2016,04,18,03,58,14.80
2016,04,18,03,59,14.80
2016,04,18,04,00,14.70
2016,04,18,04,01,14.70
2016,04,18,04,02,14.70
2016,04,18,04,03,14.60
2016,04,18,04,04,14.60
2016,04,18,04,05,14.60
2016,04,18,04,06,14.60
2016,04,18,04,07,14.60
2016,04,18,04,08,14.50
2016,04,18,04,09,14.50
2016,04,18,04,10,14.50
2016,04,18,04,11,14.50
2016,04,18,04,12,14.50
2016,04,18,04,13,14.40
2016,04,18,04,14,14.40
2016,04,18,04,15,14.40
2016,04,18,04,16,14.40
2016,04,18,04,17,14.30
2016,04,18,04,18,14.30
2016,04,18,04,19,14.30
2016,04,18,04,20,14.30
2016,04,18,04,21,14.20
2016,04,18,04,22,14.20
2016,04,18,04,23,14.20
2016,04,18,04,24,14.20
2016,04,18,04,25,14.20
2016,04,18,04,26,14.10
2016,04,18,04,27,14.10
2016,04,18,04,28,14.10
2016,04,18,04,29,14.10
2016,04,18,04,30,14.10
2016,04,18,04,31,14.10
2016,04,18,04,32,14.10
2016,04,18,04,33,14.10
2016,04,18,04,34,14.10
2016,04,18,04,35,14.10
2016,04,18,04,36,14.10
2016,04,18,04,37,14.10
2016,04,18,04,38,14.10
2016,04,18,04,39,14.10
2016,04,18,04,40,14.10
2016,04,18,04,41,14.00
2016,04,18,04,42,14.00
2016,04,18,04,43,14.00
2016,04,18,04,44,14.00
2016,04,18,04,45,14.00
2016,04,18,04,46,14.00
2016,04,18,04,47,14.00
2016,04,18,04,48,14.00
2016,04,18,04,49,14.00
2016,04,18,04,50,13.90
2016,04,18,04,51,13.90
2016,04,18,04,52,13.90
2016,04,18,04,53,13.80
2016,04,18,04,54,13.80
2016,04,18,04,55,13.80
2016,04,18,04,56,13.70
2016,04,18,04,57,13.70
2016,04,18,04,58,13.70
2016,04,18,04,59,13.70
2016,04,18,05,00,13.70
2016,04,18,05,01,13.70
2016,04,18,05,02,13.70
2016,04,18,05,03,13.70
2016,04,18,05,04,13.70
2016,04,18,05,05,13.70
2016,04,18,05,06,13.70
2016,04,18,05,07,13.70
2016,04,18,05,08,13.70
2016,04,18,05,09,13.70
2016,04,18,05,10,13.70
2016,04,18,05,11,13.70
2016,04,18,05,12,13.70
2016,04,18,05,13,13.70
2016,04,18,05,14,13.70
2016,04,18,05,15,13.70
2016,04,18,05,16,13.70
2016,04,18,05,17,13.70
2016,04,18,05,18,13.70
2016,04,18,05,19,13.70
2016,04,18,05,20,13.70
2016,04,18,05,21,13.70
2016,04,18,05,22,13.80
2016,04,18,05,23,13.80
2016,04,18,05,24,13.80
2016,04,18,05,25,13.90
2016,04,18,05,26,13.90
2016,04,18,05,27,13.90
2016,04,18,05,28,14.00
2016,04,18,05,29,14.00
2016,04,18,05,30,14.10
2016,04,18,05,31,14.10
2016,04,18,05,32,14.10
2016,04,18,05,33,14.20
2016,04,18,05,34,14.20
2016,04,18,05,35,14.20
2016,04,18,05,36,14.20
2016,04,18,05,37,14.20
2016,04,18,05,38,14.20
2016,04,18,05,39,14.20
2016,04,18,05,40,14.20
2016,04,18,05,41,14.30
2016,04,18,05,42,14.30
2016,04,18,05,43,14.40
2016,04,18,05,44,14.40
2016,04,18,05,45,14.40
2016,04,18,05,46,14.50
2016,04,18,05,47,14.50
2016,04,18,05,48,14.50
2016,04,18,05,49,14.50
2016,04,18,05,50,14.50
2016,04,18,05,51,14.50
2016,04,18,05,52,14.50
2016,04,18,05,53,14.50
2016,04,18,05,54,14.40
2016,04,18,05,55,14.40
2016,04,18,05,56,14.40
2016,04,18,05,57,14.40
2016,04,18,05,58,14.50
2016,04,18,05,59,14.50
2016,04,18,06,00,14.50
2016,04,18,06,01,14.50
2016,04,18,06,02,14.50
2016,04,18,06,03,14.50
2016,04,18,06,04,14.50
2016,04,18,06,05,14.50
2016,04,18,06,06,14.50
2016,04,18,06,07,14.50
2016,04,18,06,08,14.50
2016,04,18,06,09,14.50
2016,04,18,06,10,14.50
2016,04,18,06,11,14.50
2016,04,18,06,12,14.40
2016,04,18,06,13,14.40
2016,04,18,06,14,14.40
2016,04,18,06,15,14.40
2016,04,18,06,16,14.30
2016,04,18,06,17,14.30
2016,04,18,06,18,14.30
2016,04,18,06,19,14.30
2016,04,18,06,20,14.30
2016,04,18,06,21,14.30
2016,04,18,06,22,14.30
2016,04,18,06,23,14.30
2016,04,18,06,24,14.30
2016,04,18,06,25,14.30
2016,04,18,06,26,14.30
2016,04,18,06,27,14.30
2016,04,18,06,28,14.30
2016,04,18,06,29,14.30
2016,04,18,06,30,14.20
2016,04,18,06,31,14.20
2016,04,18,06,32,14.20
2016,04,18,06,33,14.20
2016,04,18,06,34,14.20
2016,04,18,06,35,14.20
2016,04,18,06,36,14.20
2016,04,18,06,37,14.20
2016,04,18,06,38,14.20
2016,04,18,06,39,14.20
2016,04,18,06,40,14.20
2016,04,18,06,41,14.20
2016,04,18,06,42,14.20
2016,04,18,06,43,14.20
2016,04,18,06,44,14.20
2016,04,18,06,45,14.20
2016,04,18,06,46,14.20
2016,04,18,06,47,14.20
2016,04,18,06,48,14.10
2016,04,18,06,49,14.10
2016,04,18,06,50,14.10
2016,04,18,06,51,14.10
2016,04,18,06,52,14.10
2016,04,18,06,53,14.10
2016,04,18,06,54,14.10
2016,04,18,06,55,14.10
2016,04,18,06,56,14.10
2016,04,18,06,57,14.20
2016,04,18,06,58,14.20
2016,04,18,06,59,14.20
2016,04,18,07,00,14.20
2016,04,18,07,01,14.20
2016,04,18,07,02,14.20
2016,04,18,07,03,14.30
2016,04,18,07,04,14.30
2016,04,18,07,05,14.30
2016,04,18,07,06,14.40
2016,04,18,07,07,14.40
2016,04,18,07,08,14.40
2016,04,18,07,09,14.50
2016,04,18,07,10,14.50
2016,04,18,07,11,14.50
2016,04,18,07,12,14.50
2016,04,18,07,13,14.60
2016,04,18,07,14,14.60
2016,04,18,07,15,14.60
2016,04,18,07,16,14.60
2016,04,18,07,17,14.60
2016,04,18,07,18,14.60
2016,04,18,07,19,14.60
2016,04,18,07,20,14.60
2016,04,18,07,21,14.60
2016,04,18,07,22,14.60
2016,04,18,07,23,14.70
2016,04,18,07,24,14.70
2016,04,18,07,25,14.70
2016,04,18,07,26,14.80
2016,04,18,07,27,14.80
2016,04,18,07,28,14.80
2016,04,18,07,29,14.80
2016,04,18,07,30,14.90
2016,04,18,07,31,14.90
2016,04,18,07,32,14.90
2016,04,18,07,33,14.90
2016,04,18,07,34,15.00
2016,04,18,07,35,15.00
2016,04,18,07,36,15.00
2016,04,18,07,37,15.00
2016,04,18,07,38,15.10
2016,04,18,07,39,15.10
2016,04,18,07,40,15.20
2016,04,18,07,41,15.20
2016,04,18,07,42,15.20
2016,04,18,07,43,15.20
2016,04,18,07,44,15.30
2016,04,18,07,45,15.30
2016,04,18,07,46,15.30
2016,04,18,07,47,15.30
2016,04,18,07,48,15.30
2016,04,18,07,49,15.30
2016,04,18,07,50,15.40
2016,04,18,07,51,15.40
2016,04,18,07,52,15.40
2016,04,18,07,53,15.50
2016,04,18,07,54,15.50
2016,04,18,07,55,15.50
2016,04,18,07,56,15.60
2016,04,18,07,57,15.60
2016,04,18,07,58,15.60
2016,04,18,07,59,15.70
2016,04,18,08,00,15.70
2016,04,18,08,01,15.70
2016,04,18,08,02,15.70
2016,04,18,08,03,15.80
2016,04,18,08,04,15.80
2016,04,18,08,05,15.80
2016,04,18,08,06,15.80
2016,04,18,08,07,15.90
2016,04,18,08,08,15.90
2016,04,18,08,09,16.00
2016,04,18,08,10,16.10
2016,04,18,08,11,16.10
2016,04,18,08,12,16.10
2016,04,18,08,13,16.10
2016,04,18,08,14,16.10
2016,04,18,08,15,16.10
2016,04,18,08,16,16.10
2016,04,18,08,17,16.20
2016,04,18,08,18,16.20
2016,04,18,08,19,16.30
2016,04,18,08,20,16.30
2016,04,18,08,21,16.30
2016,04,18,08,22,16.30
2016,04,18,08,23,16.30
2016,04,18,08,24,16.30
2016,04,18,08,25,16.30
2016,04,18,08,26,16.30
2016,04,18,08,27,16.30
2016,04,18,08,28,16.30
2016,04,18,08,29,16.20
2016,04,18,08,30,16.20
2016,04,18,08,31,16.20
2016,04,18,08,32,16.20
2016,04,18,08,33,16.10
2016,04,18,08,34,16.10
2016,04,18,08,35,16.10
2016,04,18,08,36,16.10
2016,04,18,08,37,16.20
2016,04,18,08,38,16.20
2016,04,18,08,39,16.20
2016,04,18,08,40,16.20
2016,04,18,08,41,16.30
2016,04,18,08,42,16.30
2016,04,18,08,43,16.30
2016,04,18,08,44,16.30
2016,04,18,08,45,16.30
2016,04,18,08,46,16.40
2016,04,18,08,47,16.40
2016,04,18,08,48,16.40
2016,04,18,08,49,16.40
2016,04,18,08,50,16.40
2016,04,18,08,51,16.40
2016,04,18,08,52,16.40
2016,04,18,08,53,16.40
2016,04,18,08,54,16.40
2016,04,18,08,55,16.40
2016,04,18,08,56,16.40
2016,04,18,08,57,16.40
2016,04,18,08,58,16.40
2016,04,18,08,59,16.40
2016,04,18,09,00,16.40
2016,04,18,09,01,16.40
2016,04,18,09,02,16.40
2016,04,18,09,03,16.40
2016,04,18,09,04,16.40
2016,04,18,09,05,16.40
2016,04,18,09,06,16.40
2016,04,18,09,07,16.40
2016,04,18,09,08,16.40
2016,04,18,09,09,16.40
2016,04,18,09,10,16.40
2016,04,18,09,11,16.40
2016,04,18,09,12,16.40
2016,04,18,09,13,16.40
2016,04,18,09,14,16.40
2016,04,18,09,15,16.40
2016,04,18,09,16,16.40
2016,04,18,09,17,16.40
2016,04,18,09,18,16.40
2016,04,18,09,19,16.40
2016,04,18,09,20,16.40
2016,04,18,09,21,16.40
2016,04,18,09,22,16.40
2016,04,18,09,23,16.40
2016,04,18,09,24,16.40
2016,04,18,09,25,16.50
2016,04,18,09,26,16.60
2016,04,18,09,27,16.60
2016,04,18,09,28,16.60
2016,04,18,09,29,16.60
2016,04,18,09,30,16.60
2016,04,18,09,31,16.60
2016,04,18,09,32,16.60
2016,04,18,09,33,16.70
2016,04,18,09,34,16.70
2016,04,18,09,35,16.70
2016,04,18,09,36,16.80
2016,04,18,09,37,16.90
2016,04,18,09,38,17.00
2016,04,18,09,39,17.00
2016,04,18,09,40,17.10
2016,04,18,09,41,17.10
2016,04,18,09,42,17.20
2016,04,18,09,43,17.30
2016,04,18,09,44,17.30
2016,04,18,09,45,17.30
2016,04,18,09,46,17.30
2016,04,18,09,47,17.30
2016,04,18,09,48,17.30
2016,04,18,09,49,17.30
2016,04,18,09,50,17.30
2016,04,18,09,51,17.30
2016,04,18,09,52,17.30
2016,04,18,09,53,17.30
2016,04,18,09,54,17.30
2016,04,18,09,55,17.30
2016,04,18,09,56,17.30
2016,04,18,09,57,17.30
2016,04,18,09,58,17.30
2016,04,18,09,59,17.40
2016,04,18,10,00,17.50
2016,04,18,10,01,17.50
2016,04,18,10,02,17.50
2016,04,18,10,03,17.60
2016,04,18,10,04,17.70
2016,04,18,10,05,17.70
2016,04,18,10,06,17.80
2016,04,18,10,07,17.90
2016,04,18,10,08,17.90
2016,04,18,10,09,17.90
2016,04,18,10,10,17.90
2016,04,18,10,11,17.90
2016,04,18,10,12,17.90
2016,04,18,10,13,18.00
2016,04,18,10,14,18.10
2016,04,18,10,15,18.10
2016,04,18,10,16,18.00
2016,04,18,10,17,17.90
2016,04,18,10,18,17.90
2016,04,18,10,19,17.90
2016,04,18,10,20,17.90
2016,04,18,10,21,18.10
2016,04,18,10,22,18.20
2016,04,18,10,23,18.20
2016,04,18,10,24,18.20
2016,04,18,10,25,18.20
2016,04,18,10,26,18.20
2016,04,18,10,27,18.20
2016,04,18,10,28,18.20
2016,04,18,10,29,18.20
2016,04,18,10,30,18.20
2016,04,18,10,31,18.20
2016,04,18,10,32,18.30
2016,04,18,10,33,18.30
2016,04,18,10,34,18.30
2016,04,18,10,35,18.30
2016,04,18,10,36,18.20
2016,04,18,10,37,18.20
2016,04,18,10,38,18.30
2016,04,18,10,39,18.30
2016,04,18,10,40,18.30
2016,04,18,10,41,18.40
2016,04,18,10,42,18.40
2016,04,18,10,43,18.50
2016,04,18,10,44,18.60
2016,04,18,10,45,18.70
2016,04,18,10,46,18.80
2016,04,18,10,47,18.80
2016,04,18,10,48,18.80
2016,04,18,10,49,18.90
2016,04,18,10,50,18.90
2016,04,18,10,51,18.90
2016,04,18,10,52,18.90
2016,04,18,10,53,18.90
2016,04,18,10,54,19.00
2016,04,18,10,55,19.10
2016,04,18,10,56,19.10
2016,04,18,10,57,19.10
2016,04,18,10,58,19.20
2016,04,18,10,59,19.30
2016,04,18,11,00,19.40
2016,04,18,11,01,19.50
2016,04,18,11,02,19.50
2016,04,18,11,03,19.60
2016,04,18,11,04,19.60
2016,04,18,11,05,19.60
2016,04,18,11,06,19.50
2016,04,18,11,07,19.40
2016,04,18,11,08,19.30
2016,04,18,11,09,19.30
2016,04,18,11,10,19.20
2016,04,18,11,11,19.20
2016,04,18,11,12,19.20
2016,04,18,11,13,19.30
2016,04,18,11,14,19.30
2016,04,18,11,15,19.40
2016,04,18,11,16,19.60
2016,04,18,11,17,19.70
2016,04,18,11,18,19.80
2016,04,18,11,19,19.90
2016,04,18,11,20,20.10
2016,04,18,11,21,20.10
2016,04,18,11,22,20.20
2016,04,18,11,23,20.30
2016,04,18,11,24,20.40
2016,04,18,11,25,20.50
2016,04,18,11,26,20.50
2016,04,18,11,27,20.50
2016,04,18,11,28,20.50
2016,04,18,11,29,20.50
2016,04,18,11,30,20.60
2016,04,18,11,31,20.60
2016,04,18,11,32,20.70
2016,04,18,11,33,20.70
2016,04,18,11,34,20.80
2016,04,18,11,35,20.80
2016,04,18,11,36,20.80
2016,04,18,11,37,20.80
2016,04,18,11,38,20.80
2016,04,18,11,39,20.80
2016,04,18,11,40,20.80
2016,04,18,11,41,20.90
2016,04,18,11,42,21.00
2016,04,18,11,43,21.00
2016,04,18,11,44,21.00
2016,04,18,11,45,21.00
2016,04,18,11,46,21.00
2016,04,18,11,47,20.90
2016,04,18,11,48,20.90
2016,04,18,11,49,21.00
2016,04,18,11,50,21.00
2016,04,18,11,51,21.10
2016,04,18,11,52,21.10
2016,04,18,11,53,21.10
2016,04,18,11,54,21.10
2016,04,18,11,55,21.10
2016,04,18,11,56,21.10
2016,04,18,11,57,21.00
2016,04,18,11,58,21.00
2016,04,18,11,59,20.90
2016,04,18,12,00,20.80
2016,04,18,12,01,20.90
2016,04,18,12,02,20.90
2016,04,18,12,03,21.00
2016,04,18,12,04,21.10
2016,04,18,12,05,21.30
2016,04,18,12,06,21.40
2016,04,18,12,07,21.60
2016,04,18,12,08,21.60
2016,04,18,12,09,21.60
2016,04,18,12,10,21.50
2016,04,18,12,11,21.40
2016,04,18,12,12,21.50
2016,04,18,12,13,21.60
2016,04,18,12,14,21.60
2016,04,18,12,15,21.60
2016,04,18,12,16,21.70
2016,04,18,12,17,21.80
2016,04,18,12,18,21.80
2016,04,18,12,19,21.80
2016,04,18,12,20,21.90
2016,04,18,12,21,22.00
2016,04,18,12,22,22.00
2016,04,18,12,23,22.00
2016,04,18,12,24,22.00
2016,04,18,12,25,22.00
2016,04,18,12,26,22.10
2016,04,18,12,27,22.20
2016,04,18,12,28,22.30
2016,04,18,12,29,22.40
2016,04,18,12,30,22.50
2016,04,18,12,31,22.50
2016,04,18,12,32,22.50
2016,04,18,12,33,22.50
2016,04,18,12,34,22.60
2016,04,18,12,35,22.60
2016,04,18,12,36,22.60
2016,04,18,12,37,22.60
2016,04,18,12,38,22.60
2016,04,18,12,39,22.70
2016,04,18,12,40,22.80
2016,04,18,12,41,22.90
2016,04,18,12,42,22.90
2016,04,18,12,43,22.90
2016,04,18,12,44,22.90
2016,04,18,12,45,22.90
2016,04,18,12,46,23.00
2016,04,18,12,47,23.10
2016,04,18,12,48,23.20
2016,04,18,12,49,23.20
2016,04,18,12,50,23.30
2016,04,18,12,51,23.30
2016,04,18,12,52,23.30
2016,04,18,12,53,23.30
2016,04,18,12,54,23.20
2016,04,18,12,55,23.20
2016,04,18,12,56,23.10
2016,04,18,12,57,23.10
2016,04,18,12,58,23.00
2016,04,18,12,59,22.90
2016,04,18,13,00,22.90
2016,04,18,13,01,22.90
2016,04,18,13,02,23.10
2016,04,18,13,03,23.00
2016,04,18,13,04,22.90
2016,04,18,13,05,22.90
2016,04,18,13,06,22.90
2016,04,18,13,07,22.90
2016,04,18,13,08,22.90
2016,04,18,13,09,22.90
2016,04,18,13,10,22.90
2016,04,18,13,11,22.80
2016,04,18,13,12,22.70
2016,04,18,13,13,22.70
2016,04,18,13,14,22.70
2016,04,18,13,15,22.60
2016,04,18,13,16,22.60
2016,04,18,13,17,22.60
2016,04,18,13,18,22.60
2016,04,18,13,19,22.40
2016,04,18,13,20,22.40
2016,04,18,13,21,22.30
2016,04,18,13,22,22.30
2016,04,18,13,23,22.20
2016,04,18,13,24,22.10
2016,04,18,13,25,22.00
2016,04,18,13,26,21.90
2016,04,18,13,27,21.80
2016,04,18,13,28,21.60
2016,04,18,13,29,21.60
2016,04,18,13,30,21.60
2016,04,18,13,31,21.60
2016,04,18,13,32,21.60
2016,04,18,13,33,21.60
2016,04,18,13,34,21.60
2016,04,18,13,35,21.60
2016,04,18,13,36,21.60
2016,04,18,13,37,21.50
2016,04,18,13,38,21.40
2016,04,18,13,39,21.50
2016,04,18,13,40,21.60
2016,04,18,13,41,21.60
2016,04,18,13,42,21.60
2016,04,18,13,43,21.60
2016,04,18,13,44,21.60
2016,04,18,13,45,21.50
2016,04,18,13,46,21.40
2016,04,18,13,47,21.30
2016,04,18,13,48,21.30
2016,04,18,13,49,21.30
2016,04,18,13,50,21.30
2016,04,18,13,51,21.40
2016,04,18,13,52,21.40
2016,04,18,13,53,21.40
2016,04,18,13,54,21.50
2016,04,18,13,55,21.60
2016,04,18,13,56,21.70
2016,04,18,13,57,21.70
2016,04,18,13,58,21.60
2016,04,18,13,59,21.60
2016,04,18,14,00,21.50
2016,04,18,14,01,21.40
2016,04,18,14,02,21.30
2016,04,18,14,03,21.30
2016,04,18,14,04,21.40
2016,04,18,14,05,21.40
2016,04,18,14,06,21.30
2016,04,18,14,07,21.20
2016,04,18,14,08,21.10
2016,04,18,14,09,21.10
2016,04,18,14,10,21.10
2016,04,18,14,11,21.20
2016,04,18,14,12,21.30
2016,04,18,14,13,21.30
2016,04,18,14,14,21.30
2016,04,18,14,15,21.10
2016,04,18,14,16,21.10
2016,04,18,14,17,21.00
2016,04,18,14,18,20.90
2016,04,18,14,19,20.90
2016,04,18,14,20,21.00
2016,04,18,14,21,21.00
2016,04,18,14,22,21.00
2016,04,18,14,23,20.90
2016,04,18,14,24,20.70
2016,04,18,14,25,20.60
2016,04,18,14,26,20.50
2016,04,18,14,27,20.50
2016,04,18,14,28,20.40
2016,04,18,14,29,20.40
2016,04,18,14,30,20.40
2016,04,18,14,31,20.40
2016,04,18,14,32,20.30
2016,04,18,14,33,20.30
2016,04,18,14,34,20.30
2016,04,18,14,35,20.40
2016,04,18,14,36,20.40
2016,04,18,14,37,20.30
2016,04,18,14,38,20.20
2016,04,18,14,39,20.20
2016,04,18,14,40,20.20
2016,04,18,14,41,20.20
2016,04,18,14,42,20.20
2016,04,18,14,43,20.20
2016,04,18,14,44,20.20
2016,04,18,14,45,20.20
2016,04,18,14,46,20.30
2016,04,18,14,47,20.40
2016,04,18,14,48,20.50
2016,04,18,14,49,20.50
2016,04,18,14,50,20.50
2016,04,18,14,51,20.50
2016,04,18,14,52,20.60
2016,04,18,14,53,20.70
2016,04,18,14,54,21.00
2016,04,18,14,55,21.10
2016,04,18,14,56,21.20
2016,04,18,14,57,21.10
2016,04,18,14,58,21.10
2016,04,18,14,59,21.20
2016,04,18,15,00,21.10
2016,04,18,15,01,21.00
2016,04,18,15,02,21.00
2016,04,18,15,03,20.90
2016,04,18,15,04,20.80
2016,04,18,15,05,20.70
2016,04,18,15,06,20.60
2016,04,18,15,07,20.50
2016,04,18,15,08,20.40
2016,04,18,15,09,20.30
2016,04,18,15,10,20.20
2016,04,18,15,11,20.20
2016,04,18,15,12,20.10
2016,04,18,15,13,20.10
2016,04,18,15,14,20.10
2016,04,18,15,15,20.10
2016,04,18,15,16,20.10
2016,04,18,15,17,20.10
2016,04,18,15,18,20.10
2016,04,18,15,19,20.10
2016,04,18,15,20,20.00
2016,04,18,15,21,19.80
2016,04,18,15,22,19.60
2016,04,18,15,23,19.50
2016,04,18,15,24,19.60
2016,04,18,15,25,19.60
2016,04,18,15,26,19.70
2016,04,18,15,27,19.70
2016,04,18,15,28,19.70
2016,04,18,15,29,19.70
2016,04,18,15,30,19.60
2016,04,18,15,31,19.70
2016,04,18,15,32,19.70
2016,04,18,15,33,19.90
2016,04,18,15,34,20.00
2016,04,18,15,35,20.20
2016,04,18,15,36,20.40
2016,04,18,15,37,20.50
2016,04,18,15,38,20.70
2016,04,18,15,39,20.70
2016,04,18,15,40,20.60
2016,04,18,15,41,20.50
2016,04,18,15,42,20.50
2016,04,18,15,43,20.40
2016,04,18,15,44,20.30
2016,04,18,15,45,20.30
2016,04,18,15,46,20.20
2016,04,18,15,47,20.20
2016,04,18,15,48,20.30
2016,04,18,15,49,20.20
2016,04,18,15,50,20.30
2016,04,18,15,51,20.20
2016,04,18,15,52,20.20
2016,04,18,15,53,20.10
2016,04,18,15,54,20.00
2016,04,18,15,55,19.90
2016,04,18,15,56,19.90
2016,04,18,15,57,19.90
2016,04,18,15,58,19.90
2016,04,18,15,59,19.90
2016,04,18,16,00,19.90
2016,04,18,16,01,19.80
2016,04,18,16,02,19.70
2016,04,18,16,03,19.60
2016,04,18,16,04,19.50
2016,04,18,16,05,19.40
2016,04,18,16,06,19.30
2016,04,18,16,07,19.20
2016,04,18,16,08,19.10
2016,04,18,16,09,19.10
2016,04,18,16,10,19.00
2016,04,18,16,11,18.90
2016,04,18,16,12,18.90
2016,04,18,16,13,18.90
2016,04,18,16,14,18.90
2016,04,18,16,15,18.90
2016,04,18,16,16,18.90
2016,04,18,16,17,19.00
2016,04,18,16,18,19.10
2016,04,18,16,19,19.20
2016,04,18,16,20,19.30
2016,04,18,16,21,19.50
2016,04,18,16,22,19.60
2016,04,18,16,23,19.70
2016,04,18,16,24,19.90
2016,04,18,16,25,20.10
2016,04,18,16,26,20.30
2016,04,18,16,27,20.50
2016,04,18,16,28,20.80
2016,04,18,16,29,21.10
2016,04,18,16,30,21.30
2016,04,18,16,31,21.50
2016,04,18,16,32,21.70
2016,04,18,16,33,21.80
2016,04,18,16,34,21.80
2016,04,18,16,35,21.80
2016,04,18,16,36,21.60
2016,04,18,16,37,21.60
2016,04,18,16,38,21.40
2016,04,18,16,39,21.30
2016,04,18,16,40,21.20
2016,04,18,16,41,21.10
2016,04,18,16,42,21.00
2016,04,18,16,43,20.90
2016,04,18,16,44,20.80
2016,04,18,16,45,20.70
2016,04,18,16,46,20.60
2016,04,18,16,47,20.60
2016,04,18,16,48,20.60
2016,04,18,16,49,20.70
2016,04,18,16,50,20.70
2016,04,18,16,51,20.80
2016,04,18,16,52,20.80
2016,04,18,16,53,20.90
2016,04,18,16,54,21.00
2016,04,18,16,55,21.00
2016,04,18,16,56,21.10
2016,04,18,16,57,21.30
2016,04,18,16,58,21.30
2016,04,18,16,59,21.40
2016,04,18,17,00,21.50
2016,04,18,17,01,21.60
2016,04,18,17,02,21.60
2016,04,18,17,03,21.60
2016,04,18,17,04,21.60
2016,04,18,17,05,21.70
2016,04,18,17,06,21.70
2016,04,18,17,07,21.80
2016,04,18,17,08,21.90
2016,04,18,17,09,21.90
2016,04,18,17,10,22.00
2016,04,18,17,11,22.10
2016,04,18,17,12,22.10
2016,04,18,17,13,22.20
2016,04,18,17,14,22.30
2016,04,18,17,15,22.30
2016,04,18,17,16,22.30
2016,04,18,17,17,22.20
2016,04,18,17,18,22.10
2016,04,18,17,19,22.10